This is the latest recevied weather packets stored in our database for station/object K1RFS. If no packets are shown the sender has not sent any weather packets the latest 10 day(s).
| Time | Temp. | Humidity | Pressure | Rain* | Wind** | Luminosity | Snow |
|---|---|---|---|---|---|---|---|
| 1787729590 | 23.89° C | 42% | 1008.1 hPa | 0 mm | - | 0 W/m² | - |
| 1787729284 | 23.89° C | 41% | 1008.2 hPa | 0 mm | - | 0 W/m² | - |
| 1787728980 | 23.89° C | 40% | 1008.1 hPa | 0 mm | - | 0 W/m² | - |
| 1787728675 | 23.89° C | 46% | 1008.1 hPa | 0 mm | - | 0 W/m² | - |
| 1787728371 | 23.89° C | 45% | 1008.1 hPa | 0 mm | - | 0 W/m² | - |
| 1787728066 | 23.89° C | 45% | 1008.1 hPa | 0 mm | - | 0 W/m² | - |
| 1787727766 | 24.44° C | 43% | 1008.4 hPa | 0 mm | - | 0 W/m² | - |
| 1787727464 | 25° C | 42% | 1008.2 hPa | 0 mm | - | 0 W/m² | - |
| 1787727159 | 25° C | 41% | 1008.1 hPa | 0 mm | - | 0 W/m² | - |
| 1787726859 | 25° C | 42% | 1008.1 hPa | 0 mm | - | 0 W/m² | - |
| 1787726550 | 24.44° C | 44% | 1008.1 hPa | 0 mm | - | 0 W/m² | - |
| 1787726246 | 24.44° C | 44% | 1008.2 hPa | 0 mm | - | 0 W/m² | - |
| 1787725946 | 24.44° C | 44% | 1008.2 hPa | 0 mm | - | 0 W/m² | - |
| 1787725642 | 24.44° C | 43% | 1008.4 hPa | 0 mm | - | 0 W/m² | - |
| 1787725337 | 23.33° C | 41% | 1008.2 hPa | 0 mm | - | 0 W/m² | - |
| 1787725033 | 23.33° C | 43% | 1008.1 hPa | 0 mm | - | 0 W/m² | - |
| 1787724727 | 23.33° C | 41% | 1007.9 hPa | 0 mm | - | 0 W/m² | - |
| 1787724423 | 23.33° C | 41% | 1008 hPa | 0 mm | - | 0 W/m² | - |
| 1787724122 | 23.33° C | 41% | 1007.9 hPa | 0 mm | - | 0 W/m² | - |
| 1787723817 | 23.89° C | 41% | 1008.2 hPa | 0 mm | - | 0 W/m² | - |
| 1787723516 | 23.33° C | 41% | 1008 hPa | 0 mm | - | 0 W/m² | - |
| 1787723213 | 23.33° C | 43% | 1008 hPa | 0 mm | - | 0 W/m² | - |
| 1787722912 | 23.33° C | 43% | 1008 hPa | 0 mm | - | 0 W/m² | - |
| 1787722607 | 23.89° C | 43% | 1008 hPa | 0 mm | - | 0 W/m² | - |
| 1787722302 | 24.44° C | 39% | 1007.9 hPa | 0 mm | - | 0 W/m² | - |
* Rain latest hour (hover to see other rain measurements)
** Current wind speed in m/s (hover to see current wind gust speed)